SCP
0 0 0 0 0 0 0 0 0 0 0 0 0 0 0 0 0 0 0 0 0 0 0 0 0 0 0 0 0 0 0 0 0 0 0 0 0 0 0 0 0 0 0 0 0 0 0 0 0
0 0 0 0 0 0 0 0 0 0 0 0 0 0 0 0 0 0 0 0 0 0 0 0 0 0 0 0 0 0 0 0 0 0 0 0 0 0 0 0 0 0 0 0 0 0 0 0 0
0 0 0 0 0 0 0 0 0 0 0 0 0 0 0 0 0 0 0 0 0 0 0 0 0 0 0 0 0 0 0 0 0 0 0 0 0 0 0 0 0 0 0 0 0 0 0 0 0
0 0 0 0 0 0 0 0 0 0 0 0 0 0 0 0 0 0 0 0 0 0 0 0 0 0 0 0 0 0 0 0 0 0 0 0 0 0 0 0 0 0 0 0 0 0 0 0 0
0 0 0 0 0 0 0 0 0 0 0 0 0 0 0 0 0 0 0 0 0 0 0 0 0 0 0 0 0 0 0 0 0 0 0 0 0 0 0 0 0 0 0 0 0 0 0 0 0
0 0 0 0 0 0 0 0 0 0 0 0 0 0 0 0 0 0 0 0 0 0 0 0 0 0 0 0 0 0 0 0 0 0 0 0 0 0 0 0 0 0 0 0 0 0 0 0 0
0 0 0 0 0 0 0 0 0 0 0 0 0 0 0 0 0 0 0 0 0 0 0 0 0 0 0 0 0 0 0 0 0 0 0 0 0 0 0 0 0 0 0 0 0 0 0 0 0
0 0 0 0 0 0 0 0 0 0 0 0 0 0 0 0 0 0 0 0 0 0 0 0 0 0 0 0 0 0 0 0 0 0 0 0 0 0 0 0 0 0 0 0 0 0 0 0 0
0 0 0 0 0 0 0 0 0 0 0 0 0 0 0 0 0 0 0 0 0 0 0 0 0 0 0 0 0 0 0 0 0 0 0 0 0 0 0 0 0 0 0 0 0 0 0 0 0
0 0 0 0 0 0 0 0 0 0 0 0 0 0 0 0 0 0 0 0 0 0 0 0 0 0 0 0 0 0 0 0 0 0 0 0 0 0 0 0 0 0 0 0 0 0 0 0 0
0 0 0 0 0 0 0 0 0 0 0 0 0 0 0 0 0 0 0 0 0 0 0 0 0 0 0 0 0 0 0 0 0 0 0 0 0 0 0 0 0 0 0 0 0 0 0 0 0
0 0 0 0 0 0 0 0 0 0 0 0 0 0 0 0 0 0 0 0 0 0 0 0 0 0 0 0 0 0 0 0 0 0 0 0 0 0 0 0 0 0 0 0 0 0 0 0 0
0 0 0 0 0 0 0 0 0 0 0 0 0 0 0 0 0 0 0 0 0 0 0 0 0 0 0 0 0 0 0 0 0 0 0 0 0 0 0 0 0 0 0 0 0 0 0 0 0
0 0 0 0 0 0 0 0 0 0 0 0 0 0 0 0 0 0 0 0 0 0 0 0 0 0 0 0 0 0 0 0 0 0 0 0 0 0 0 0 0 0 0 0 0 0 0 0 0
0 0 0 0 0 0 0 0 0 0 0 0 0 0 0 0 0 0 0 0 0 0 0 0 0 0 0 0 0 0 0 0 0 0 0 0 0 0 0 0 0 0 0 0 0 0 0 0 0
0 0 0 0 0 0 0 0 0 0 0 0 0 0 0 0 0 0 0 0 0 0 0 0 0 0 0 0 0 0 0 0 0 0 0 0 0 0 0 0 0 0 0 0 0 0 0 0 0
0 0 0 0 0 0 0 0 0 0 0 0 0 0 0 0 0 0 0 0 0 0 0 0 0 0 0 0 0 0 0 0 0 0 0 0 0 0 0 0 0 0 0 0 0 0 0 0 0
0 0 0 0 0 0 0 0 0 0 0 0 0 0 0 0 0 0 0 0 0 0 0 0 0 0 0 0 0 0 0 0 0 0 0 0 0 0 0 0 0 0 0 0 0 0 0 0 0
0 0 0 0 0 0 0 0 0 0 0 0 0 0 0 0 0 0 0 0 0 0 0 0 0 0 0 0 0 0 0 0 0 0 0 0 0 0 0 0 0 0 0 0 0 0 0 0 0
0 0 0 0 0 0 0 0 0 0 0 0 0 0 0 0 0 0 0 0 0 0 0 0 0 0 0 0 0 0 0 0 0 0 0 0 0 0 0 0 0 0 0 0 0 0 0 0 0
0 0 0 0 0 0 0 0 0 0 0 0 0 0 0 0 0 0 0 0 0 0 0 0 0 0 0 0 0 0 0 0 0 0 0 0 0 0 0 0 0 0 0 0 0 0 0 0 0
0 0 0 0 0 0 0 0 0 0 0 0 0 0 0 0 0 0 0 0 0 0 0 0 0 0 0 0 0 0 0 0 0 0 0 0 0 0 0 0 0 0 0 0 0 0 0 0 0
0 0 0 0 0 0 0 0 0 0 0 0 0 0 0 0 0 0 0 0 0 0 0 0 0 0 0 0 0 0 0 0 0 0 0 0 0 0 0 0 0 0 0 0 0 0 0 0 0
0 0 0 0 0 0 0 0 0 0 0 0 0 0 0 0 0 0 0 0 0 0 0 0 0 0 0 0 0 0 0 0 0 0 0 0 0 0 0 0 0 0 0 0 0 0 0 0 0
0 0 0 0 0 0 0 0 0 0 0 0 0 0 0 0 0 0 0 0 0 0 0 0 0 0 0 0 0 0 0 0 0 0 0 0 0 0 0 0 0 0 0 0 0 0 0 0 0
0 0 0 0 0 0 0 0 0 0 0 0 0 0 0 0 0 0 0 0 0 0 0 0 0 0 0 0 0 0 0 0 0 0 0 0 0 0 0 1 0 0 0 0 0 0 0 0 0
0 0 0 0 0 0 0 0 0 0 0 0 0 0 0 0 0 0 0 0 0 0 0 0 1 0 0 0 0 0 0 0 0 0 0 1 1 1 1 1 1 0 0 0 0 0 0 0 0
0 0 0 0 0 0 0 0 0 0 0 0 0 0 0 0 0 0 0 0 0 0 0 0 1 1 0 0 0 0 0 0 0 0 1 1 1 1 1 1 1 0 0 0 0 0 0 0 0
0 0 0 0 0 0 0 0 0 0 0 0 0 0 0 0 0 0 0 0 0 0 0 0 0 0 0 0 0 0 0 0 0 0 1 1 1 1 0 0 0 0 0 0 0 0 0 0 0
0 0 0 0 0 0 0 0 0 0 0 0 0 0 0 0 0 0 0 0 0 0 0 0 0 0 0 0 0 0 0 0 0 0 1 1 1 0 0 0 0 0 0 0 0 0 0 0 0
Wind_Speed
12 10 6 3 3 3 3 3 4 4 4 6 6 4 7 10 7 8 5 10 14 14 12 11 11 12 12 12 12 12 13 14 14 15 15 16 16 16 17 17 17 18 19 19 19 19 19 19 18
9 9 5 3 3 4 1 4 4 6 7 5 3 1 4 9 7 7 6 11 14 13 12 11 12 12 13 12 12 12 13 14 14 15 15 15 16 16 17 17 17 18 18 18 18 18 18 18 17
8 6 3 3 4 4 2 5 7 9 6 2 2 3 6 7 7 6 7 12 12 11 11 12 12 13 13 13 12 12 13 14 14 14 15 15 16 16 16 16 17 17 18 18 18 18 18 17 16
4 3 3 4 7 4 3 4 7 7 4 1 2 7 6 6 4 8 10 11 11 11 12 11 12 13 13 13 13 13 13 14 14 14 14 15 15 15 15 16 16 17 17 17 17 17 17 16 15
3 3 3 5 7 3 2 4 4 4 5 4 1 5 6 4 7 10 9 10 10 11 11 11 11 12 12 13 13 13 13 14 14 14 14 14 14 14 14 15 15 16 16 16 16 16 16 15 14
2 2 4 6 7 4 2 2 2 4 4 4 2 4 6 4 7 8 8 8 9 11 11 10 10 11 11 12 12 12 13 13 13 13 13 13 13 13 14 14 15 15 15 15 15 15 15 14 12
2 3 6 7 6 4 3 3 3 3 3 5 2 4 7 6 8 8 7 7 9 11 11 9 8 10 10 11 11 12 11 12 12 13 12 12 12 13 12 12 13 14 14 14 14 14 13 12 11
2 2 6 8 7 5 3 4 1 2 1 3 1 2 7 9 9 8 6 6 8 8 9 9 8 8 8 8 11 12 12 12 12 12 12 12 12 11 10 10 12 13 13 13 12 12 11 10 8
2 3 6 7 6 3 4 4 3 3 2 3 4 6 8 16 12 9 6 5 6 7 7 8 8 8 8 8 10 10 11 11 11 9 11 9 6 6 6 9 10 11 11 11 10 9 8 7 4
4 5 9 6 5 2 3 4 5 3 4 4 5 9 13 13 12 12 10 9 9 8 7 7 8 8 8 8 7 6 6 6 6 5 5 3 4 5 8 9 9 9 9 8 7 6 5 3 2
6 7 7 7 5 4 1 3 3 4 5 7 11 14 15 12 12 12 11 10 9 8 7 6 7 7 7 6 6 4 4 4 5 6 5 4 5 5 5 3 4 4 5 4 3 3 1 2 2
6 8 8 6 2 1 2 2 3 6 3 2 5 17 17 15 14 14 13 11 10 9 8 6 7 7 7 6 5 4 4 3 3 5 5 4 3 4 4 3 4 3 2 3 2 1 2 3 2
10 7 8 6 2 2 3 4 5 6 4 2 6 13 15 15 13 11 10 10 10 10 10 8 6 7 6 5 4 4 4 4 4 4 4 5 4 4 4 3 3 3 3 2 2 3 2 2 2
8 9 8 6 5 4 5 7 7 7 5 5 7 11 13 14 14 12 12 11 12 12 12 9 8 7 7 5 4 4 4 4 5 4 5 5 4 4 4 4 3 3 3 3 2 3 2 2 1
6 7 9 8 7 5 5 9 12 11 6 7 8 10 11 12 13 14 14 12 12 12 12 11 9 8 8 7 6 4 4 4 4 5 6 5 5 5 4 4 3 3 3 3 2 2 1 1 1
6 7 9 9 10 7 6 10 10 11 11 10 9 9 10 12 14 13 13 11 11 11 13 13 10 9 9 7 6 4 4 5 4 5 5 6 6 6 5 4 4 4 4 3 2 2 2 2 1
9 10 11 9 12 9 10 8 8 7 10 11 10 10 10 11 12 13 13 13 12 12 13 14 12 11 10 8 6 5 5 5 5 5 5 6 6 6 5 4 4 5 4 3 3 2 2 2 1
13 11 10 12 9 11 11 10 8 6 7 8 9 9 10 11 13 12 13 13 12 12 12 13 13 12 10 8 6 5 5 5 5 5 6 8 7 7 6 4 6 6 4 3 3 3 2 1 2
10 13 13 10 8 10 12 13 12 10 9 9 8 8 9 11 11 12 12 12 12 12 13 14 14 14 11 9 9 8 7 6 5 5 7 8 8 8 7 5 5 6 5 5 5 4 3 3 2
14 12 11 7 6 7 8 12 12 12 12 11 10 10 10 9 10 12 13 13 14 14 14 14 15 15 14 11 10 7 7 6 6 5 7 9 9 9 8 7 6 6 5 6 6 5 3 3 3
17 14 10 5 3 2 3 9 13 14 13 12 11 10 10 10 11 13 14 15 14 15 16 14 16 16 16 13 9 7 6 5 6 8 8 9 10 10 9 9 8 7 7 7 7 7 6 4 4
18 12 8 5 4 4 7 7 9 13 16 17 15 12 12 10 10 12 14 15 16 16 14 14 15 16 16 15 13 14 12 11 11 8 8 8 10 10 11 10 10 9 7 7 8 8 6 6 4
8 7 7 5 5 4 6 7 7 8 13 15 15 15 13 12 11 12 14 16 15 15 14 14 14 15 16 16 16 15 12 10 8 8 9 10 9 10 11 11 10 10 9 9 9 8 8 6 6
8 6 4 1 3 9 12 10 8 8 11 9 12 14 15 13 12 12 12 13 13 13 13 13 14 15 16 17 17 17 16 13 11 12 12 10 8 10 12 12 11 11 9 10 10 10 10 8 7
13 11 6 7 9 11 10 11 11 7 7 8 8 9 11 12 13 12 11 12 13 14 15 14 15 16 16 17 18 18 18 16 15 14 13 11 10 10 14 13 11 10 10 10 10 9 9 9 8
17 17 11 10 8 5 7 12 9 6 5 3 4 4 5 6 8 9 10 11 13 14 14 15 16 16 16 17 18 17 17 13 12 13 11 12 11 11 11 14 13 12 11 11 10 8 8 8 9
16 16 8 2 2 3 7 7 7 5 4 5 6 6 7 6 6 7 8 9 10 12 13 14 15 15 15 16 15 15 15 15 13 12 12 9 9 9 11 12 13 12 11 11 10 8 9 8 8
11 10 6 6 7 6 6 9 8 8 11 10 9 9 9 7 6 6 6 7 8 9 10 11 12 13 13 13 13 12 14 14 13 11 12 11 10 10 11 12 12 11 11 11 10 8 8 8 7
14 16 10 8 6 6 6 7 7 11 11 11 11 9 9 8 7 6 5 5 5 5 7 8 9 10 10 11 11 11 11 12 12 11 11 10 9 11 12 12 12 11 11 10 10 9 10 10 8
12 14 14 11 8 6 4 7 1 5 6 6 6 5 4 4 4 4 4 4 4 5 6 7 8 8 8 8 8 9 10 10 11 11 11 10 10 10 10 11 11 11 11 11 11 11 11 11 12
Wind_Direction
312 303 292 283 273 249 257 85 66 78 73 52 39 7 44 45 41 100 136 117 115 118 124 124 118 117 114 111 108 105 105 103 101 99 98 96 94 92 91 90 89 88 86 84 82 81 79 78 77
311 310 300 269 270 270 215 106 110 79 78 79 71 346 80 77 73 104 121 116 119 124 131 124 120 119 117 113 109 107 106 104 103 101 99 97 94 92 92 92 91 90 88 86 84 82 81 79 77
296 284 289 281 261 284 34 83 91 87 102 131 116 32 43 73 108 124 121 124 122 123 118 121 123 121 119 115 111 107 107 106 103 101 100 98 95 92 92 93 92 91 89 87 85 84 82 80 78
299 274 246 254 264 278 5 81 94 114 125 161 126 101 77 42 78 116 128 126 122 117 118 125 124 123 121 118 114 110 108 106 104 102 100 98 96 94 93 94 94 92 90 88 86 85 84 80 76
263 266 247 248 259 272 30 70 106 150 158 165 221 105 93 66 87 117 133 126 123 119 122 128 123 123 123 122 118 114 110 107 105 104 102 100 99 98 96 97 96 94 92 90 89 86 84 80 75
269 252 241 240 249 235 166 124 169 209 160 134 188 106 100 122 127 138 136 131 126 123 124 127 119 121 121 120 118 116 113 110 108 107 106 105 102 100 99 99 99 97 96 93 91 88 86 81 75
253 259 253 254 251 238 166 132 210 227 169 154 175 110 119 148 139 146 142 135 127 126 129 135 133 124 117 115 114 113 111 110 110 108 102 97 97 96 95 97 100 100 99 97 95 91 88 84 77
262 261 251 252 253 242 145 142 207 294 121 86 58 110 144 152 145 146 143 134 130 134 139 145 147 139 131 118 113 112 110 108 106 104 101 98 97 96 94 93 99 102 101 100 99 97 94 90 81
256 238 239 239 248 237 139 155 132 13 70 89 62 44 108 135 145 145 146 141 140 145 146 150 152 149 142 135 125 117 112 114 114 111 122 127 122 115 98 93 98 103 104 104 106 108 110 108 99
198 223 235 254 277 274 152 175 148 172 175 155 121 97 117 139 154 161 166 166 163 161 157 155 155 149 145 141 141 139 134 143 141 142 162 167 117 106 103 94 98 105 109 114 121 131 148 165 162
203 225 243 260 287 320 187 199 162 200 214 193 171 150 146 159 169 176 177 175 171 166 160 161 154 147 144 141 155 153 147 163 152 158 171 121 106 115 118 116 118 122 140 141 155 187 197 89 61
218 234 244 255 299 320 280 244 213 226 244 50 131 151 156 172 182 186 184 180 173 171 168 170 157 150 147 151 157 150 147 157 151 156 157 138 141 150 151 156 165 170 172 159 163 141 95 90 73
225 236 240 243 194 236 278 260 249 242 219 135 123 146 166 180 187 190 187 182 175 175 173 177 168 159 155 155 158 157 154 159 153 153 168 158 152 160 154 153 160 168 148 165 156 137 130 118 88
213 231 244 234 213 211 234 252 245 244 209 175 163 170 179 186 186 185 190 190 181 177 175 176 177 170 160 161 166 165 160 158 152 158 175 172 160 159 154 150 167 158 161 162 154 140 141 129 110
226 228 237 230 216 207 217 245 234 240 219 200 191 187 188 190 188 190 192 193 183 176 173 175 179 177 170 171 175 174 167 157 159 164 175 178 165 162 161 157 168 164 150 137 136 129 124 136 151
204 219 226 215 205 201 201 244 234 222 214 216 208 198 192 195 194 192 189 190 185 175 174 175 177 181 178 178 182 178 177 168 168 166 172 179 176 169 166 161 172 165 152 160 168 168 177 188 181
196 211 214 216 196 188 202 243 247 221 208 215 213 208 196 193 196 191 187 186 186 180 176 175 177 182 181 181 184 184 180 177 176 171 174 181 183 177 168 169 172 164 162 173 170 176 177 173 151
193 206 213 215 190 196 209 233 247 243 221 220 220 213 202 196 196 190 185 184 184 181 177 176 177 181 179 179 184 188 188 186 186 182 181 178 182 183 177 175 173 166 166 175 173 182 179 159 146
205 203 214 217 198 200 222 234 239 234 234 225 225 226 214 203 190 183 181 179 179 181 181 180 180 182 180 183 187 190 192 190 194 194 185 181 181 183 183 178 178 173 177 183 181 176 182 189 161
233 229 219 215 193 199 233 245 243 236 229 223 221 222 222 206 188 181 180 180 183 186 187 186 185 184 185 188 188 189 185 191 194 195 193 188 186 184 188 184 183 181 183 187 186 178 175 185 175
221 225 220 205 155 191 269 265 242 241 236 231 224 221 221 209 195 183 183 186 187 191 192 191 189 187 188 185 181 182 187 185 192 199 199 197 191 188 188 190 187 187 186 192 193 186 180 185 196
216 214 220 208 179 214 198 262 237 226 226 224 221 218 220 217 204 189 185 189 193 197 193 193 191 189 188 186 187 186 191 196 196 193 195 194 194 193 192 193 193 191 192 195 195 193 189 179 186
200 179 204 213 210 243 221 248 258 232 229 220 214 212 214 214 209 198 190 193 195 193 193 195 194 194 190 190 193 194 200 200 192 187 190 194 197 199 198 196 196 197 197 198 196 192 194 193 185
151 119 100 112 211 236 221 229 258 217 227 219 211 208 209 210 209 206 196 189 192 189 190 193 197 199 195 194 196 200 203 199 194 193 193 195 196 200 203 201 200 200 200 199 199 196 196 198 193
159 148 163 189 209 231 197 216 246 219 222 213 215 211 207 206 205 203 196 188 190 190 192 194 198 203 200 198 200 203 205 204 204 200 197 193 195 200 203 202 203 201 201 199 196 196 195 194 193
182 179 180 186 200 217 181 219 244 224 216 208 220 230 230 214 203 198 195 192 193 193 194 196 201 206 203 202 204 205 205 206 210 209 203 199 200 201 195 200 203 203 200 197 194 193 194 192 193
180 201 210 152 120 200 216 230 249 210 204 216 227 233 238 232 220 207 199 195 193 194 196 199 203 208 208 207 206 207 206 207 210 209 209 204 201 196 194 197 201 202 199 195 189 191 189 185 188
182 175 176 191 178 211 231 218 219 187 205 215 220 222 227 225 225 216 205 199 196 195 197 200 205 210 211 210 209 209 209 209 208 207 209 207 200 192 192 194 197 197 195 190 186 181 178 177 177
173 185 184 185 200 187 218 239 204 191 194 204 213 213 212 208 204 204 200 196 194 193 195 202 209 214 214 213 213 211 210 207 206 209 209 205 198 193 192 192 191 190 188 183 181 180 175 176 170
192 188 184 185 199 208 218 257 172 137 154 169 185 185 176 175 180 184 188 190 192 200 204 206 209 214 217 215 215 215 212 206 206 209 208 201 199 194 190 185 186 186 184 181 182 179 178 177 175